{"data":{"norad_id":62819,"epoch":"2026-05-24T21:06:34.049664Z","epoch_age_seconds":85133,"freshness":"FRESH","line1":"1 62819U 25018P   26144.87956076  .00014246  00000+0  49203-3 0  9994","line2":"2 62819  53.1597 315.6866 0000929  76.6654 283.4450 15.30210379 74847","mean_motion":15.30210379,"eccentricity":9.29e-5,"inclination_deg":53.1597,"raan_deg":315.6866,"arg_perigee_deg":76.6654,"mean_anomaly_deg":283.445,"bstar":0.00049203,"rev_number":7484,"period_min":94.104707415529,"perigee_km":474.547406243,"apogee_km":475.82075329963,"semimajor_km":6853.3210797713,"source":"CELESTRAK","updated_at":"2026-05-25T13:38:19.775746Z"}}